Wind_Speed
2 2 3 3 3 3 2 2 2 2 2 3 3 3 3 3 3 3 2 2 2 3 3 2 2 2 2 2 2 3 2 2 2 2 2 2 3 3 3 4 4 5 4 5 5 6 6 6 6
1 2 2 3 3 3 2 2 2 2 2 3 3 4 4 4 4 3 3 3 3 3 3 3 3 3 2 2 2 2 3 3 3 3 3 4 4 4 5 5 5 5 5 6 6 6 6 6 6
1 2 2 3 3 3 2 3 3 3 3 4 4 4 5 5 5 5 5 5 4 4 4 4 4 4 4 3 3 3 3 4 4 4 5 5 5 5 6 5 5 6 6 6 6 6 7 6 6
2 2 3 3 3 3 4 5 4 4 4 5 5 5 6 6 6 6 6 6 5 5 6 5 5 5 5 5 5 5 5 5 6 6 6 6 6 7 7 6 7 7 7 7 7 7 7 7 7
2 3 3 3 4 5 5 5 6 6 5 6 6 5 6 6 6 6 6 6 6 6 6 7 7 6 6 6 6 6 6 6 7 7 7 7 7 7 7 7 7 8 8 8 8 7 8 8 8
3 3 3 3 4 5 6 6 6 6 6 7 8 6 7 7 7 6 6 7 7 7 7 7 7 7 7 8 8 8 8 7 7 7 8 8 8 8 8 8 8 8 8 8 8 8 9 9 9
3 4 4 5 5 5 6 6 6 7 7 8 8 8 7 7 7 7 7 8 8 8 8 9 8 8 9 9 9 9 8 9 8 8 8 8 9 9 9 9 9 9 9 9 9 10 10 10 10
3 4 5 5 6 6 6 7 7 7 7 7 7 7 7 8 8 8 8 8 8 9 9 9 9 9 9 9 9 9 9 9 9 9 9 10 10 11 11 11 11 11 11 10 11 11 11 11 11
5 5 6 6 7 7 7 7 8 8 8 7 7 7 8 8 8 9 9 9 9 9 9 9 9 9 9 10 10 10 10 10 11 10 11 11 11 12 12 12 12 12 11 11 11 11 11 11 12
6 6 6 7 7 8 8 8 8 8 8 9 8 8 8 8 8 9 9 9 9 9 9 9 10 9 10 10 10 10 11 11 11 12 12 12 12 12 12 12 12 12 13 12 12 12 12 12 12
6 6 7 7 7 8 8 8 8 8 8 8 8 8 8 8 8 9 9 9 9 9 9 9 9 9 9 10 11 11 12 12 13 13 13 13 13 13 13 12 13 13 13 13 13 12 12 13 13
6 6 7 7 8 8 8 8 9 9 9 9 8 9 9 9 8 8 9 9 9 9 9 9 10 10 10 10 11 11 12 12 13 13 13 13 13 13 13 14 13 14 14 14 13 13 13 13 13
6 6 6 6 7 8 8 9 9 9 9 10 10 10 10 10 9 9 9 9 9 10 10 10 10 10 10 11 12 12 13 13 13 13 13 14 14 14 14 14 14 14 14 14 14 14 14 14 14
7 7 7 7 7 8 8 9 9 9 9 10 10 10 10 10 10 10 10 10 10 10 10 11 11 11 11 12 12 12 13 13 14 14 14 14 15 14 14 14 14 14 14 14 14 14 14 14 14
7 7 7 7 7 8 8 8 9 9 9 10 10 10 10 10 11 11 11 11 11 10 10 11 11 12 12 12 12 12 13 13 14 14 14 15 14 14 14 14 14 14 14 14 14 13 13 13 13
7 7 7 7 7 8 8 9 9 9 9 9 10 9 10 10 11 11 11 11 11 11 11 11 11 11 12 12 13 13 13 13 14 14 14 14 14 14 14 14 14 14 14 13 13 13 13 12 12
6 6 7 7 8 8 9 9 10 10 10 10 10 10 10 10 10 11 11 11 12 12 12 12 12 12 13 13 13 13 13 14 14 14 14 14 14 14 14 14 13 13 13 12 12 12 12 12 12
6 7 8 8 9 9 9 9 10 10 10 11 11 11 11 11 11 12 12 13 13 13 13 12 12 12 13 13 13 14 14 14 14 15 15 15 14 14 13 13 13 14 13 12 12 11 11 11 11
7 8 8 9 10 9 9 10 11 11 11 12 12 12 12 12 12 12 12 13 13 13 13 12 12 12 12 13 13 14 14 15 15 15 15 15 14 14 13 13 13 13 13 12 12 11 10 10 11
8 9 9 9 10 10 9 10 12 12 12 12 12 13 13 13 13 13 13 12 13 13 12 13 13 13 13 13 13 14 14 15 15 15 15 14 14 14 13 13 12 13 12 12 11 11 12 11 11
9 10 10 10 10 10 10 11 12 12 12 13 13 13 13 13 13 13 13 13 13 13 14 14 13 13 13 13 14 15 15 15 15 15 14 14 13 14 14 14 13 13 13 12 12 12 12 12 12
10 10 10 10 10 10 10 13 14 14 13 13 13 13 13 13 14 14 14 14 14 14 14 14 14 14 14 14 14 15 15 15 15 14 14 13 13 13 13 14 14 14 14 14 14 13 13 12 12
10 10 10 10 10 10 11 13 15 17 15 14 14 14 14 14 15 15 14 14 14 15 14 14 15 15 15 15 15 15 16 15 14 14 13 13 13 13 13 14 14 14 14 14 14 13 12 12 12
11 10 9 9 11 11 11 13 16 17 17 16 16 15 15 16 16 16 16 16 15 15 15 15 15 16 16 16 16 16 16 15 14 14 14 14 14 14 14 14 14 14 14 14 13 13 13 13 12
11 11 11 11 11 12 13 14 16 17 18 18 18 17 16 17 17 17 17 17 16 16 16 16 16 16 16 16 16 16 15 15 15 15 15 15 14 14 14 14 14 14 14 14 14 14 13 13 12
12 13 12 12 11 13 15 16 17 17 17 18 18 18 18 18 18 18 18 18 17 17 17 17 16 16 16 16 16 16 16 16 16 15 15 15 15 15 14 14 14 14 14 14 14 14 14 13 13
14 14 14 14 14 15 16 20 19 17 18 18 19 19 19 19 18 18 18 18 18 18 18 18 17 17 17 17 17 16 16 16 16 16 16 16 15 15 14 14 14 14 14 14 14 14 13 14 14
16 15 15 16 16 17 18 20 22 19 20 20 20 20 20 20 20 19 19 19 19 19 19 19 18 18 18 18 18 17 17 16 16 16 15 15 15 15 15 14 14 14 14 14 14 14 14 14 14
17 16 17 17 17 18 17 19 20 21 22 22 22 22 21 21 20 20 20 20 20 20 20 19 20 20 19 19 19 18 18 18 17 17 16 16 16 16 16 16 15 15 16 15 15 15 15 15 15
17 17 17 18 19 19 20 22 22 22 23 23 23 23 23 22 21 21 21 21 21 21 21 21 21 21 20 20 20 20 19 19 18 18 17 17 17 17 17 17 17 16 16 17 17 16 17 17 17
Wind_Direction
121 139 149 158 157 172 175 171 180 195 214 230 239 241 236 245 234 233 236 265 276 291 296 299 300 291 284 275 263 248 249 246 261 275 279 289 295 296 299 312 316 322 318 310 310 310 307 314 323
145 166 169 181 185 215 208 214 227 225 235 245 255 256 253 255 256 256 252 263 271 286 294 295 288 290 295 287 284 278 269 268 283 287 292 299 301 300 300 304 312 319 324 322 314 312 311 315 323
180 186 186 201 213 226 219 227 236 248 248 250 256 264 265 264 264 264 262 263 265 274 282 286 287 290 298 293 300 301 290 290 294 301 300 299 302 305 308 308 312 316 317 320 318 317 317 318 320
197 205 207 210 226 238 242 243 241 249 253 256 260 268 269 269 266 267 267 267 271 276 277 279 284 288 295 289 285 290 291 290 290 295 299 300 301 303 306 305 307 309 310 311 311 312 312 311 309
228 223 220 227 242 245 252 248 245 252 261 263 263 268 269 268 266 270 273 277 279 281 279 279 278 280 287 289 285 286 286 290 292 292 296 299 299 302 301 301 300 301 303 304 303 304 307 309 309
247 239 232 235 249 255 256 257 254 255 259 265 267 267 267 265 263 270 277 276 279 281 280 282 277 277 280 287 290 287 283 287 293 292 294 295 297 301 301 300 298 298 299 299 299 300 300 301 301
249 245 238 239 248 255 257 258 260 262 264 265 265 267 267 267 266 269 275 280 282 283 281 280 279 278 279 282 286 285 284 284 287 290 291 292 294 298 297 296 295 294 295 295 296 297 296 295 294
254 253 248 251 256 260 260 263 266 268 269 267 267 270 272 272 272 275 277 283 287 287 284 281 282 282 281 283 286 289 291 290 288 288 288 289 291 293 293 292 292 292 292 291 293 293 293 292 291
257 255 256 261 267 269 266 267 269 269 269 267 270 273 279 276 275 278 280 285 288 290 288 284 283 282 284 286 288 289 291 292 292 292 290 290 291 290 291 291 290 290 291 289 290 291 291 290 290
259 259 260 263 271 273 271 268 269 272 271 270 271 273 279 280 280 282 283 288 291 292 290 286 287 286 288 290 289 289 289 292 294 294 292 293 293 292 291 291 289 291 291 290 290 291 292 291 291
258 261 265 266 268 270 269 269 272 274 273 272 274 274 276 280 284 287 287 288 293 295 296 292 293 292 294 296 295 293 292 292 293 294 295 296 294 293 293 292 289 290 292 290 289 290 290 290 290
259 266 270 269 270 273 272 271 274 275 277 279 278 278 279 283 285 287 288 288 288 291 292 295 294 292 294 296 298 297 295 296 294 294 296 295 295 293 293 291 291 290 290 290 288 286 287 287 288
261 267 273 276 274 277 277 275 275 278 280 281 281 281 281 282 285 286 288 291 292 291 289 289 291 293 295 295 298 300 298 299 299 296 296 295 294 294 295 292 292 293 294 292 291 288 286 285 286
267 270 272 277 280 282 283 284 279 281 281 282 281 281 282 283 286 285 288 289 291 294 294 292 293 295 296 298 300 301 300 300 299 297 295 294 294 294 294 293 293 294 294 293 292 291 290 287 286
264 265 270 279 283 286 284 284 284 286 286 284 284 283 286 287 289 290 288 287 289 291 292 294 296 296 294 295 298 301 303 303 303 302 300 298 296 294 293 292 293 293 294 294 292 294 293 290 290
262 268 273 279 285 286 285 287 288 288 288 286 286 287 289 291 292 291 289 288 290 290 291 292 294 295 295 296 297 298 301 302 302 302 301 301 300 299 297 295 295 295 295 296 295 294 294 292 293
261 271 278 281 284 289 286 287 290 290 290 287 286 287 290 292 293 291 291 292 292 290 290 290 291 292 293 294 296 297 299 300 300 301 301 300 298 297 296 296 295 297 299 299 297 296 297 294 291
260 271 280 285 286 290 291 291 289 292 292 290 288 289 292 289 293 293 291 292 291 291 289 288 290 292 291 291 293 296 298 299 299 300 300 300 298 296 293 294 293 295 297 300 302 300 297 295 292
261 268 277 284 287 290 292 292 293 293 294 293 291 290 292 289 291 292 293 293 294 294 292 290 289 292 293 292 292 295 297 299 298 300 299 298 296 294 292 294 294 294 296 298 302 302 298 296 293
260 268 273 280 286 289 290 292 294 297 295 295 293 290 290 289 291 293 292 293 296 295 293 294 292 292 293 293 293 294 296 299 299 299 300 299 295 292 291 294 294 293 294 296 296 298 300 297 293
259 268 276 283 286 288 288 289 292 296 296 295 294 292 291 291 293 295 295 295 295 292 290 291 292 292 292 293 295 294 296 298 299 298 297 298 295 293 290 289 291 292 291 290 290 295 298 297 296
263 267 273 280 285 289 293 293 293 296 297 296 294 292 290 291 293 293 293 294 293 291 290 291 291 292 293 294 294 295 296 295 295 296 295 297 298 295 292 290 291 290 290 288 288 292 294 296 296
268 267 272 279 285 288 293 293 295 294 297 296 294 293 290 289 290 291 290 290 290 290 290 290 290 291 291 292 292 294 294 292 291 293 294 294 297 297 295 295 293 290 288 286 285 287 289 292 293
268 268 273 279 283 285 288 287 288 292 294 296 296 293 292 289 288 288 288 288 288 288 290 291 291 290 290 291 290 291 292 289 289 291 293 293 293 295 296 296 298 293 288 286 285 286 287 287 287
263 269 277 281 287 291 291 287 286 292 292 294 294 293 293 291 290 288 287 287 288 288 287 288 289 289 289 291 291 290 292 289 289 290 292 293 293 293 295 295 295 294 291 287 284 285 286 284 282
264 266 269 271 273 281 284 280 288 293 292 291 291 291 290 289 289 288 287 286 285 285 285 285 287 288 288 288 289 289 289 290 289 288 288 291 292 292 293 293 293 293 291 287 284 283 283 282 280
265 266 269 270 269 269 274 280 283 288 291 289 288 287 288 287 286 285 284 284 283 283 281 282 284 286 286 286 287 288 287 288 289 288 287 288 290 291 294 293 292 291 292 289 285 281 280 279 278
264 265 267 267 269 270 272 277 283 287 290 290 288 287 286 285 283 282 282 282 282 281 281 281 282 284 283 283 284 286 285 285 286 287 287 288 289 288 290 291 290 288 288 287 287 283 281 282 280
269 267 266 268 270 269 273 272 277 282 288 289 289 288 287 284 283 283 282 280 281 281 281 280 280 281 281 281 282 283 283 283 283 285 284 284 285 285 286 288 289 287 286 286 284 282 282 282 282
270 269 269 268 268 268 269 273 277 280 285 287 287 287 288 287 283 282 282 281 281 281 280 279 278 279 279 278 278 280 281 282 282 282 282 280 281 283 283 285 286 285 284 284 282 280 281 280 280
Height
5879 5879 5880 5881 5882 5882 5881 5882 5882 5882 5883 5883 5883 5883 5883 5884 5885 5887 5885 5884 5885 5885 5884 5884 5884 5884 5883 5883 5883 5883 5883 5882 5882 5882 5882 5882 5881 5881 5881 5881 5881 5880 5880 5879 5879 5878 5877 5876 5874
5879 5880 5881 5882 5881 5881 5882 5882 5882 5883 5883 5883 5883 5884 5884 5884 5884 5885 5884 5884 5885 5884 5884 5884 5884 5883 5883 5883 5883 5883 5883 5882 5882 5882 5882 5882 5881 5881 5881 5881 5880 5880 5879 5879 5878 5877 5876 5876 5874
5879 5880 5881 5881 5881 5881 5882 5882 5882 5883 5883 5883 5884 5884 5884 5884 5884 5884 5884 5884 5884 5884 5884 5884 5884 5883 5883 5883 5883 5883 5883 5883 5882 5882 5882 5881 5881 5881 5880 5880 5880 5879 5878 5878 5877 5877 5876 5875 5874
5879 5880 5881 5881 5880 5881 5881 5882 5882 5882 5883 5883 5883 5883 5883 5883 5883 5883 5883 5883 5883 5884 5884 5883 5883 5883 5883 5883 5883 5883 5882 5882 5882 5881 5881 5881 5880 5880 5880 5879 5879 5878 5878 5877 5877 5876 5875 5875 5874
5879 5880 5881 5880 5880 5880 5880 5880 5881 5882 5882 5882 5883 5883 5883 5883 5883 5883 5883 5883 5883 5883 5883 5882 5882 5882 5882 5882 5882 5882 5881 5881 5881 5880 5880 5880 5880 5879 5879 5878 5878 5877 5877 5876 5876 5875 5874 5874 5873
5879 5879 5880 5879 5880 5880 5880 5880 5881 5881 5881 5882 5882 5882 5882 5882 5882 5882 5882 5882 5882 5882 5882 5881 5881 5881 5881 5881 5881 5881 5880 5880 5880 5879 5879 5879 5878 5878 5878 5877 5877 5876 5876 5875 5875 5874 5873 5873 5872
5879 5879 5879 5879 5879 5879 5880 5880 5880 5880 5880 5881 5881 5881 5881 5881 5881 5881 5881 5881 5881 5881 5881 5880 5880 5880 5880 5880 5879 5879 5879 5879 5878 5878 5878 5877 5877 5877 5876 5876 5875 5875 5874 5874 5873 5872 5872 5871 5871
5878 5879 5878 5878 5878 5879 5879 5879 5879 5879 5880 5880 5880 5880 5881 5881 5880 5880 5880 5880 5880 5879 5879 5879 5879 5879 5878 5878 5878 5878 5878 5877 5877 5877 5876 5876 5875 5875 5875 5874 5873 5873 5872 5872 5871 5870 5870 5869 5869
5877 5879 5878 5877 5877 5878 5878 5878 5879 5878 5879 5879 5879 5879 5879 5879 5879 5879 5879 5879 5878 5878 5878 5877 5877 5877 5877 5877 5876 5876 5876 5876 5875 5875 5875 5874 5874 5873 5873 5872 5871 5871 5870 5870 5869 5868 5868 5867 5867
5877 5877 5877 5877 5877 5877 5877 5878 5878 5878 5878 5878 5878 5878 5878 5878 5878 5877 5877 5877 5877 5877 5876 5876 5876 5876 5876 5875 5875 5874 5874 5874 5874 5873 5873 5872 5872 5871 5871 5870 5869 5869 5868 5868 5867 5866 5866 5865 5865
5875 5876 5876 5876 5876 5876 5876 5877 5876 5876 5877 5877 5877 5877 5876 5876 5876 5876 5876 5876 5876 5875 5875 5875 5874 5874 5874 5874 5873 5873 5872 5872 5872 5871 5871 5870 5870 5869 5869 5868 5867 5867 5866 5865 5865 5864 5864 5863 5863
5874 5875 5875 5875 5875 5875 5875 5875 5875 5875 5876 5875 5875 5875 5875 5875 5875 5875 5875 5875 5874 5874 5874 5873 5873 5872 5872 5872 5871 5871 5870 5870 5870 5869 5869 5868 5867 5867 5866 5866 5865 5864 5864 5863 5863 5862 5862 5861 5860
5873 5873 5874 5874 5874 5874 5874 5874 5874 5874 5874 5874 5874 5874 5874 5874 5873 5873 5873 5873 5873 5872 5872 5872 5871 5870 5870 5870 5869 5869 5868 5868 5867 5867 5866 5866 5865 5864 5864 5863 5862 5862 5861 5860 5860 5860 5859 5859 5858
5872 5872 5872 5873 5873 5873 5873 5873 5873 5873 5872 5872 5872 5872 5872 5872 5872 5872 5871 5871 5871 5871 5870 5870 5869 5869 5869 5868 5868 5867 5866 5866 5865 5864 5864 5863 5863 5862 5861 5860 5860 5859 5859 5858 5858 5857 5857 5856 5855
5871 5871 5872 5872 5872 5871 5872 5872 5871 5871 5871 5871 5871 5871 5870 5870 5870 5870 5869 5869 5869 5869 5869 5868 5868 5867 5867 5866 5866 5865 5864 5864 5863 5862 5861 5861 5860 5859 5859 5858 5857 5857 5856 5856 5855 5855 5854 5854 5853
5870 5870 5871 5871 5870 5870 5872 5871 5870 5870 5870 5869 5869 5869 5869 5868 5868 5868 5868 5867 5867 5867 5867 5866 5866 5865 5865 5864 5864 5863 5862 5862 5861 5860 5859 5858 5858 5857 5856 5856 5855 5854 5854 5853 5853 5852 5852 5851 5851
5869 5869 5869 5870 5869 5869 5870 5869 5868 5868 5868 5868 5868 5867 5867 5867 5867 5866 5866 5865 5865 5865 5865 5864 5864 5863 5863 5862 5862 5861 5860 5860 5859 5858 5857 5856 5855 5855 5854 5853 5853 5852 5851 5851 5850 5850 5849 5849 5848
5868 5868 5868 5868 5868 5868 5868 5867 5867 5867 5866 5866 5866 5866 5865 5865 5865 5864 5864 5864 5863 5862 5862 5862 5861 5861 5860 5860 5859 5858 5858 5857 5856 5855 5854 5854 5853 5852 5851 5851 5850 5850 5849 5848 5848 5847 5847 5846 5846
5866 5866 5867 5867 5866 5867 5866 5866 5865 5865 5865 5864 5864 5863 5863 5863 5863 5862 5862 5861 5861 5860 5859 5859 5859 5858 5858 5857 5856 5856 5855 5854 5853 5852 5851 5851 5850 5849 5849 5848 5848 5847 5847 5846 5846 5845 5845 5844 5844
5865 5865 5865 5865 5865 5865 5865 5864 5863 5863 5863 5862 5862 5861 5861 5860 5860 5860 5859 5859 5858 5858 5857 5857 5856 5856 5855 5854 5854 5853 5852 5851 5850 5850 5849 5848 5847 5846 5846 5846 5845 5845 5844 5844 5844 5843 5843 5842 5842
5863 5863 5863 5863 5863 5863 5863 5863 5861 5861 5861 5861 5860 5859 5859 5858 5857 5857 5856 5856 5856 5855 5855 5854 5853 5853 5852 5852 5851 5850 5850 5849 5848 5847 5846 5845 5844 5844 5843 5843 5843 5842 5842 5842 5841 5841 5840 5840 5839
5861 5861 5861 5861 5861 5861 5861 5860 5859 5858 5859 5858 5858 5857 5856 5856 5855 5855 5854 5854 5853 5852 5852 5851 5850 5850 5849 5849 5848 5847 5847 5846 5845 5844 5843 5843 5842 5841 5840 5840 5840 5839 5839 5839 5839 5838 5838 5837 5837
5859 5859 5859 5859 5859 5859 5859 5858 5858 5856 5855 5855 5855 5854 5854 5853 5852 5852 5851 5851 5850 5849 5849 5848 5847 5847 5846 5846 5845 5844 5843 5842 5842 5841 5840 5840 5839 5838 5837 5837 5837 5836 5836 5836 5836 5835 5835 5835 5834
5856 5857 5857 5857 5856 5857 5857 5857 5856 5853 5852 5852 5852 5851 5851 5850 5849 5849 5848 5847 5847 5846 5845 5845 5844 5843 5843 5842 5841 5841 5840 5839 5839 5838 5838 5837 5836 5836 5835 5834 5834 5833 5833 5832 5832 5832 5832 5832 5832
5854 5855 5855 5854 5854 5855 5854 5853 5853 5851 5850 5849 5848 5848 5847 5847 5846 5845 5845 5844 5843 5843 5842 5841 5840 5840 5839 5839 5838 5837 5836 5836 5835 5835 5834 5834 5833 5833 5832 5831 5831 5830 5830 5829 5829 5829 5829 5829 5829
5851 5851 5852 5852 5852 5852 5851 5850 5849 5848 5847 5846 5845 5844 5844 5843 5842 5842 5841 5840 5839 5839 5838 5837 5837 5836 5835 5835 5835 5834 5833 5833 5832 5832 5831 5831 5830 5829 5829 5828 5828 5827 5827 5826 5826 5826 5826 5826 5826
5847 5847 5848 5848 5848 5848 5848 5846 5845 5844 5843 5842 5841 5841 5840 5839 5838 5838 5837 5836 5835 5834 5834 5833 5833 5832 5832 5831 5831 5830 5829 5829 5829 5828 5827 5827 5826 5826 5825 5825 5824 5824 5823 5823 5823 5823 5823 5823 5823
5844 5844 5844 5844 5844 5844 5845 5843 5841 5840 5839 5838 5837 5836 5835 5835 5834 5833 5832 5831 5831 5830 5829 5829 5829 5828 5828 5827 5827 5826 5826 5825 5825 5824 5824 5823 5823 5822 5822 5821 5821 5821 5820 5820 5819 5819 5819 5819 5819
5840 5840 5839 5839 5839 5839 5839 5840 5837 5835 5834 5833 5832 5831 5830 5829 5829 5828 5827 5826 5826 5825 5825 5824 5824 5824 5823 5823 5822 5822 5821 5821 5821 5820 5820 5819 5819 5818 5818 5818 5817 5817 5817 5816 5816 5815 5815 5816 5815
5835 5835 5835 5835 5834 5834 5834 5835 5831 5830 5829 5828 5827 5826 5825 5824 5823 5823 5822 5821 5821 5820 5819 5819 5819 5818 5818 5818 5817 5817 5817 5816 5816 5816 5815 5815 5815 5814 5814 5814 5813 5813 5812 5812 5812 5811 5811 5811 5811